,,,PA_Meas_PMT16A,,PR_Meas_QMR101_102,,RH_Meas_QMH101,,SR_Meas_QMS101,,TA_Meas_QMH101,,GenWind,,GenWind,
date,time,status,PA,status,PR,status,RH,status,SR,status,TA,status,DirAvg,status,SpdAvg,
2011-06-22, 00:00:04,VALID,999.491,VALID,0,VALID,73.3588,VALID,0,VALID,25.7702,VALID,64,VALID,0.974609,
2011-06-22, 00:01:04,VALID,999.476,VALID,0,VALID,74.4422,VALID,0,VALID,25.5535,VALID,81,VALID,1.11055,
2011-06-22, 00:02:04,VALID,999.466,VALID,0,VALID,75.4569,VALID,0,VALID,25.3193,VALID,88,VALID,1.14219,
2011-06-22, 00:03:04,VALID,999.405,VALID,0,VALID,75.9605,VALID,0,VALID,25.1436,VALID,79,VALID,0.399609,
2011-06-22, 00:04:04,VALID,999.424,VALID,0,VALID,76.2123,VALID,0,VALID,25.046,VALID,79,VALID,0.169141,
2011-06-22, 00:05:04,VALID,999.436,VALID,0,VALID,76.609,VALID,0,VALID,24.9484,VALID,204,VALID,0.7875,
2011-06-22, 00:06:04,VALID,999.417,VALID,0,VALID,76.7082,VALID,0,VALID,24.9093,VALID,181,VALID,0.504687,
2011-06-22, 00:07:04,VALID,999.365,VALID,0,VALID,76.8303,VALID,0,VALID,24.8703,VALID,181,VALID,0,
2011-06-22, 00:08:04,VALID,999.373,VALID,0,VALID,77.1431,VALID,0,VALID,24.8313,VALID,181,VALID,0.119922,
2011-06-22, 00:09:05,VALID,999.329,VALID,0,VALID,77.3872,VALID,0,VALID,24.7727,VALID,133,VALID,1.2832,
2011-06-22, 00:10:05,VALID,999.308,VALID,0,VALID,77.3949,VALID,0,VALID,24.7922,VALID,109,VALID,0.908594,
2011-06-22, 00:11:05,VALID,999.31,VALID,0,VALID,77.4406,VALID,0,VALID,24.8313,VALID,93,VALID,0.873047,
2011-06-22, 00:12:05,VALID,999.282,VALID,0,VALID,76.7921,VALID,0,VALID,24.8722,VALID,116,VALID,1.25664,
2011-06-22, 00:13:05,VALID,999.307,VALID,0,VALID,76.96,VALID,0,VALID,24.9289,VALID,108,VALID,0.801172,
2011-06-22, 00:14:05,VALID,999.311,VALID,0,VALID,73.252,VALID,0,VALID,25.204,VALID,160,VALID,2.36367,
2011-06-22, 00:15:05,VALID,999.292,VALID,0,VALID,73.8929,VALID,0,VALID,25.4559,VALID,121,VALID,1.26797,
2011-06-22, 00:16:05,VALID,999.309,VALID,0,VALID,74.4346,VALID,0,VALID,25.4578,VALID,124,VALID,1.15859,
2011-06-22, 00:17:05,VALID,999.231,VALID,0,VALID,74.7779,VALID,0,VALID,25.3797,VALID,124,VALID,0.894531,
2011-06-22, 00:18:05,VALID,999.266,VALID,0,VALID,74.8313,VALID,0,VALID,25.3017,VALID,124,VALID,0.554297,
2011-06-22, 00:19:05,VALID,999.287,VALID,0,VALID,75.4035,VALID,0,VALID,25.2626,VALID,125,VALID,0.855469,
2011-06-22, 00:20:05,VALID,999.291,VALID,0,VALID,76.1436,VALID,0,VALID,25.204,VALID,138,VALID,0.814844,
2011-06-22, 00:21:05,VALID,999.28,VALID,0,VALID,76.6395,VALID,0,VALID,25.1064,VALID,121,VALID,0.79375,
2011-06-22, 00:22:05,VALID,999.288,VALID,0,VALID,76.9295,VALID,0,VALID,25.0284,VALID,126,VALID,1.47266,
2011-06-22, 00:23:05,VALID,999.259,VALID,0,VALID,76.8074,VALID,0,VALID,24.9893,VALID,97,VALID,1.91211,
2011-06-22, 00:24:05,VALID,999.234,VALID,0,VALID,76.4793,VALID,0,VALID,25.0479,VALID,94,VALID,2.08945,
2011-06-22, 00:25:05,VALID,999.206,VALID,0,VALID,74.8618,VALID,0,VALID,25.165,VALID,205,VALID,1.80234,
2011-06-22, 00:26:05,VALID,999.2,VALID,0,VALID,75.1975,VALID,0,VALID,25.3212,VALID,127,VALID,2.27539,
2011-06-22, 00:27:05,VALID,999.247,VALID,0,VALID,74.6711,VALID,0,VALID,25.3407,VALID,156,VALID,3.39219,
2011-06-22, 00:28:05,VALID,999.111,VALID,0,VALID,74.1904,VALID,0,VALID,25.4578,VALID,144,VALID,4.47266,
2011-06-22, 00:29:05,VALID,999.185,VALID,0,VALID,74.4956,VALID,0,VALID,25.4969,VALID,118,VALID,2.27734,
2011-06-22, 00:30:05,VALID,999.173,VALID,0,VALID,75.8842,VALID,0,VALID,25.4383,VALID,116,VALID,1.35508,
2011-06-22, 00:31:05,VALID,999.143,VALID,0,VALID,76.0902,VALID,0,VALID,25.3212,VALID,126,VALID,1.05391,
2011-06-22, 00:32:05,VALID,999.165,VALID,0,VALID,76.6701,VALID,0,VALID,25.204,VALID,112,VALID,1.12305,
2011-06-22, 00:33:05,VALID,999.178,VALID,0,VALID,75.5027,VALID,0,VALID,25.165,VALID,147,VALID,2.12109,
2011-06-22, 00:34:05,VALID,999.099,VALID,0,VALID,74.7779,VALID,0,VALID,25.2236,VALID,116,VALID,0.920703,
2011-06-22, 00:35:05,VALID,999.109,VALID,0,VALID,74.1675,VALID,0,VALID,25.3017,VALID,154,VALID,1.14883,
2011-06-22, 00:36:05,VALID,999.082,VALID,0,VALID,72.8552,VALID,0,VALID,25.5379,VALID,135,VALID,2.36953,
2011-06-22, 00:37:05,VALID,999.061,VALID,0,VALID,69.4829,VALID,0,VALID,25.8073,VALID,172,VALID,4.28945,
2011-06-22, 00:38:05,VALID,999.033,VALID,0,VALID,67.484,VALID,0,VALID,26.4126,VALID,185,VALID,4.16367,
2011-06-22, 00:39:05,VALID,999.038,VALID,0,VALID,66.2633,VALID,0,VALID,26.6685,VALID,169,VALID,3.87109,
2011-06-22, 00:40:05,VALID,998.997,VALID,0,VALID,68.3461,VALID,0,VALID,26.7055,VALID,91,VALID,1.11875,
2011-06-22, 00:41:05,VALID,999.003,VALID,0,VALID,67.8884,VALID,0,VALID,26.5708,VALID,169,VALID,2.38516,
2011-06-22, 00:42:05,VALID,998.98,VALID,0,VALID,67.4611,VALID,0,VALID,26.5318,VALID,151,VALID,1.63828,
2011-06-22, 00:43:05,VALID,998.997,VALID,0,VALID,67.2017,VALID,0,VALID,26.5318,VALID,169,VALID,1.96641,
2011-06-22, 00:44:05,VALID,998.993,VALID,0,VALID,65.836,VALID,0,VALID,26.7251,VALID,186,VALID,3.86719,
2011-06-22, 00:45:05,VALID,999.01,VALID,0,VALID,65.2256,VALID,0,VALID,26.9615,VALID,187,VALID,3.45508,
2011-06-22, 00:46:05,VALID,999.001,VALID,0,VALID,65.3935,VALID,0,VALID,27.018,VALID,185,VALID,2.53008,
2011-06-22, 00:47:05,VALID,999,VALID,0,VALID,64.7297,VALID,0,VALID,27.0982,VALID,176,VALID,2.56562,
2011-06-22, 00:48:05,VALID,998.922,VALID,0,VALID,64.5313,VALID,0,VALID,27.1373,VALID,168,VALID,4.54336,
2011-06-22, 00:49:05,VALID,998.972,VALID,0,VALID,64.8289,VALID,0,VALID,27.1959,VALID,180,VALID,4.33633,
2011-06-22, 00:50:05,VALID,998.914,VALID,0,VALID,64.4398,VALID,0,VALID,27.2154,VALID,189,VALID,3.96758,
2011-06-22, 00:51:05,VALID,998.923,VALID,0,VALID,64.6305,VALID,0,VALID,27.2349,VALID,194,VALID,1.99414,
2011-06-22, 00:52:05,VALID,998.892,VALID,0,VALID,64.8823,VALID,0,VALID,27.1959,VALID,185,VALID,2.82852,
2011-06-22, 00:53:05,VALID,998.885,VALID,0,VALID,64.7068,VALID,0,VALID,27.2154,VALID,195,VALID,2.83555,
2011-06-22, 00:54:05,VALID,998.897,VALID,0,VALID,65.012,VALID,0,VALID,27.2133,VALID,201,VALID,2.2168,
2011-06-22, 00:55:05,VALID,998.848,VALID,0,VALID,64.4474,VALID,0,VALID,27.2935,VALID,194,VALID,3.42148,
2011-06-22, 00:56:05,VALID,998.892,VALID,0,VALID,64.1575,VALID,0,VALID,27.3326,VALID,191,VALID,3.11875,
2011-06-22, 00:57:05,VALID,998.881,VALID,0,VALID,63.7913,VALID,0,VALID,27.3717,VALID,192,VALID,3.54453,
2011-06-22, 00:58:05,VALID,998.915,VALID,0,VALID,63.6615,VALID,0,VALID,27.4107,VALID,184,VALID,3.53008,
2011-06-22, 00:59:05,VALID,998.893,VALID,0,VALID,63.2495,VALID,0,VALID,27.4303,VALID,173,VALID,4.52539,
2011-06-22, 01:00:05,VALID,998.857,VALID,0,VALID,63.6921,VALID,0,VALID,27.4303,VALID,182,VALID,3.45977,
2011-06-22, 01:01:05,VALID,998.886,VALID,0,VALID,63.509,VALID,0,VALID,27.4066,VALID,180,VALID,3.99609,
2011-06-22, 01:02:05,VALID,998.848,VALID,0,VALID,63.4937,VALID,0,VALID,27.4086,VALID,178,VALID,4.0707,
2011-06-22, 01:03:05,VALID,998.875,VALID,0,VALID,63.8981,VALID,0.112286,VALID,27.3696,VALID,173,VALID,2.67188,
2011-06-22, 01:04:05,VALID,998.84,VALID,0,VALID,63.6615,VALID,0,VALID,27.3305,VALID,173,VALID,3.44141,
2011-06-22, 01:05:05,VALID,998.826,VALID,0,VALID,63.425,VALID,0,VALID,27.3696,VALID,188,VALID,4.59922,
2011-06-22, 01:06:05,VALID,998.883,VALID,0,VALID,63.4784,VALID,0,VALID,27.4282,VALID,175,VALID,3.32266,
2011-06-22, 01:07:05,VALID,998.886,VALID,0,VALID,63.7455,VALID,0,VALID,27.3891,VALID,179,VALID,2.67578,
2011-06-22, 01:08:05,VALID,998.901,VALID,0,VALID,63.6158,VALID,0,VALID,27.3284,VALID,180,VALID,3.19648,
2011-06-22, 01:09:05,VALID,998.863,VALID,0,VALID,64.2414,VALID,0,VALID,27.2894,VALID,165,VALID,2.42852,
2011-06-22, 01:10:05,VALID,998.867,VALID,0,VALID,64.249,VALID,0,VALID,27.2524,VALID,180,VALID,2.57461,
2011-06-22, 01:11:05,VALID,998.825,VALID,0,VALID,64.0507,VALID,0,VALID,27.1938,VALID,190,VALID,2.57344,
2011-06-22, 01:12:05,VALID,998.842,VALID,0,VALID,64.3024,VALID,0,VALID,27.2329,VALID,175,VALID,4.19766,
2011-06-22, 01:13:05,VALID,998.758,VALID,0,VALID,64.2948,VALID,0,VALID,27.2719,VALID,186,VALID,4.93281,
2011-06-22, 01:14:05,VALID,998.773,VALID,0,VALID,64.0659,VALID,0,VALID,27.2915,VALID,155,VALID,2.18164,
2011-06-22, 01:15:05,VALID,998.756,VALID,0,VALID,64.7526,VALID,0,VALID,27.2133,VALID,173,VALID,3.45156,
2011-06-22, 01:16:05,VALID,998.718,VALID,0,VALID,64.6916,VALID,0,VALID,27.1938,VALID,169,VALID,3.81211,
2011-06-22, 01:17:05,VALID,998.737,VALID,0,VALID,64.2033,VALID,0,VALID,27.311,VALID,185,VALID,3.66875,
2011-06-22, 01:18:05,VALID,998.725,VALID,0,VALID,64.4093,VALID,0,VALID,27.35,VALID,183,VALID,3.31211,
2011-06-22, 01:19:05,VALID,998.735,VALID,0,VALID,64.2795,VALID,0,VALID,27.3305,VALID,174,VALID,3.18281,
2011-06-22, 01:20:05,VALID,998.756,VALID,0,VALID,63.5547,VALID,0,VALID,27.3696,VALID,177,VALID,4.46016,
2011-06-22, 01:21:05,VALID,998.758,VALID,0,VALID,63.7913,VALID,0,VALID,27.3891,VALID,179,VALID,3.60742,
2011-06-22, 01:22:05,VALID,998.753,VALID,0,VALID,63.6615,VALID,0,VALID,27.3891,VALID,181,VALID,4.39687,
2011-06-22, 01:23:05,VALID,998.758,VALID,0,VALID,64.127,VALID,0.112286,VALID,27.3089,VALID,173,VALID,2.83203,
2011-06-22, 01:24:05,VALID,998.748,VALID,0,VALID,64.6,VALID,0,VALID,27.2719,VALID,172,VALID,2.61211,
2011-06-22, 01:25:05,VALID,998.765,VALID,0,VALID,64.2033,VALID,0,VALID,27.2329,VALID,187,VALID,2.18203,
2011-06-22, 01:26:05,VALID,998.765,VALID,0,VALID,64.6229,VALID,0,VALID,27.2329,VALID,170,VALID,2.8832,
2011-06-22, 01:27:05,VALID,998.751,VALID,0,VALID,64.6992,VALID,0,VALID,27.1743,VALID,165,VALID,1.9957,
2011-06-22, 01:28:05,VALID,998.777,VALID,0,VALID,64.7755,VALID,0,VALID,27.1157,VALID,166,VALID,2.46914,
2011-06-22, 01:29:05,VALID,998.78,VALID,0,VALID,65.3477,VALID,0,VALID,27.0961,VALID,163,VALID,2.30234,
2011-06-22, 01:30:05,VALID,998.776,VALID,0,VALID,65.2104,VALID,0,VALID,27.0571,VALID,164,VALID,2.18164,
2011-06-22, 01:31:05,VALID,998.741,VALID,0,VALID,64.6916,VALID,0,VALID,27.0571,VALID,195,VALID,2.26172,
2011-06-22, 01:32:05,VALID,998.805,VALID,0,VALID,65.0425,VALID,0,VALID,27.1352,VALID,161,VALID,1.5625,
2011-06-22, 01:33:05,VALID,998.802,VALID,0,VALID,65.775,VALID,0,VALID,27.0571,VALID,161,VALID,2.19766,
2011-06-22, 01:34:05,VALID,998.719,VALID,0,VALID,66.248,VALID,0,VALID,26.9574,VALID,151,VALID,1.3293,
2011-06-22, 01:35:05,VALID,998.731,VALID,0,VALID,67.4916,VALID,0,VALID,26.8618,VALID,102,VALID,0.811328,
2011-06-22, 01:36:05,VALID,998.706,VALID,0,VALID,68.4148,VALID,0,VALID,26.7055,VALID,122,VALID,0.846875,
2011-06-22, 01:37:05,VALID,998.686,VALID,0,VALID,67.6137,VALID,0,VALID,26.5688,VALID,155,VALID,1.53516,
2011-06-22, 01:38:05,VALID,998.708,VALID,0,VALID,66.721,VALID,0,VALID,26.6079,VALID,177,VALID,2.44883,
2011-06-22, 01:39:05,VALID,998.682,VALID,0,VALID,65.1493,VALID,0,VALID,26.7446,VALID,186,VALID,3.07695,
2011-06-22, 01:40:05,VALID,998.666,VALID,0,VALID,63.6615,VALID,0,VALID,27.0961,VALID,196,VALID,4.9207,
2011-06-22, 01:41:05,VALID,998.647,VALID,0,VALID,63.4327,VALID,0,VALID,27.2719,VALID,181,VALID,4.32695,
2011-06-22, 01:42:05,VALID,998.675,VALID,0,VALID,63.0283,VALID,0,VALID,27.3696,VALID,179,VALID,5.48281,
2011-06-22, 01:43:05,VALID,998.691,VALID,0,VALID,63.013,VALID,0,VALID,27.4086,VALID,168,VALID,4.48828,
2011-06-22, 01:44:05,VALID,998.67,VALID,0,VALID,62.8223,VALID,0,VALID,27.3891,VALID,177,VALID,4.85664,
2011-06-22, 01:45:05,VALID,998.677,VALID,0,VALID,62.6697,VALID,0,VALID,27.4477,VALID,175,VALID,2.75469,
2011-06-22, 01:46:05,VALID,998.684,VALID,0,VALID,62.9291,VALID,0,VALID,27.4672,VALID,184,VALID,3.12383,
2011-06-22, 01:47:05,VALID,998.645,VALID,0,VALID,63.1351,VALID,0,VALID,27.4282,VALID,174,VALID,2.39727,
2011-06-22, 01:48:05,VALID,998.618,VALID,0,VALID,63.8294,VALID,0,VALID,27.35,VALID,171,VALID,2.82109,
2011-06-22, 01:49:05,VALID,998.571,VALID,0,VALID,63.631,VALID,0,VALID,27.3305,VALID,167,VALID,3.57852,
2011-06-22, 01:50:05,VALID,998.542,VALID,0,VALID,63.7302,VALID,0,VALID,27.3305,VALID,162,VALID,3.41445,
2011-06-22, 01:51:05,VALID,998.558,VALID,0,VALID,63.7531,VALID,0,VALID,27.3305,VALID,176,VALID,2.77578,
2011-06-22, 01:52:05,VALID,998.517,VALID,0,VALID,63.7836,VALID,0,VALID,27.311,VALID,176,VALID,4.05625,
2011-06-22, 01:53:05,VALID,998.508,VALID,0,VALID,63.6387,VALID,0,VALID,27.35,VALID,182,VALID,2.94375,
2011-06-22, 01:54:05,VALID,998.528,VALID,0,VALID,64.0583,VALID,0,VALID,27.3305,VALID,181,VALID,3.51836,
2011-06-22, 01:55:05,VALID,998.479,VALID,0,VALID,63.5471,VALID,0,VALID,27.3891,VALID,178,VALID,4.89766,
2011-06-22, 01:56:05,VALID,998.522,VALID,0,VALID,63.7989,VALID,0,VALID,27.4086,VALID,168,VALID,3.4625,
2011-06-22, 01:57:05,VALID,998.501,VALID,0,VALID,64.0278,VALID,0,VALID,27.3696,VALID,172,VALID,2.94727,
2011-06-22, 01:58:05,VALID,998.489,VALID,0,VALID,64.394,VALID,0,VALID,27.2915,VALID,176,VALID,2.36758,
2011-06-22, 01:59:05,VALID,998.473,VALID,0,VALID,64.5847,VALID,0,VALID,27.2329,VALID,193,VALID,2.78633,
2011-06-22, 02:00:05,VALID,998.47,VALID,0,VALID,64.7144,VALID,0,VALID,27.2524,VALID,170,VALID,3.85703,
2011-06-22, 02:01:05,VALID,998.462,VALID,0,VALID,64.539,VALID,0,VALID,27.2915,VALID,179,VALID,4.56719,
2011-06-22, 02:02:05,VALID,998.443,VALID,0,VALID,64.2261,VALID,0,VALID,27.3891,VALID,166,VALID,2.86484,
2011-06-22, 02:03:05,VALID,998.419,VALID,0,VALID,64.3635,VALID,0,VALID,27.35,VALID,165,VALID,2.98672,
2011-06-22, 02:04:05,VALID,998.432,VALID,0,VALID,64.9967,VALID,0,VALID,27.2503,VALID,176,VALID,2.47891,
2011-06-22, 02:05:05,VALID,998.4,VALID,0,VALID,64.9204,VALID,0,VALID,27.2133,VALID,174,VALID,4.14531,
2011-06-22, 02:06:05,VALID,998.399,VALID,0,VALID,65.0044,VALID,0,VALID,27.2329,VALID,168,VALID,3.28555,
2011-06-22, 02:07:05,VALID,998.435,VALID,0,VALID,64.9891,VALID,0,VALID,27.2524,VALID,168,VALID,3.45156,
2011-06-22, 02:08:05,VALID,998.426,VALID,0,VALID,65.3172,VALID,0,VALID,27.2113,VALID,168,VALID,2.81484,
2011-06-22, 02:09:05,VALID,998.423,VALID,0,VALID,65.2714,VALID,0,VALID,27.1938,VALID,162,VALID,3.47031,
2011-06-22, 02:10:05,VALID,998.421,VALID,0,VALID,65.7673,VALID,0,VALID,27.1547,VALID,165,VALID,2.95313,
2011-06-22, 02:11:05,VALID,998.403,VALID,0,VALID,65.6224,VALID,0,VALID,27.0961,VALID,155,VALID,2.57539,
2011-06-22, 02:12:05,VALID,998.44,VALID,0,VALID,66.0649,VALID,0,VALID,27.0571,VALID,171,VALID,2.58867,
2011-06-22, 02:13:05,VALID,998.431,VALID,0,VALID,66.1793,VALID,0,VALID,27.018,VALID,168,VALID,3.59414,
2011-06-22, 02:14:05,VALID,998.413,VALID,0,VALID,66.0649,VALID,0,VALID,26.9964,VALID,161,VALID,2.84023,
2011-06-22, 02:15:05,VALID,998.418,VALID,0,VALID,65.9962,VALID,0,VALID,27.018,VALID,159,VALID,3.29453,
2011-06-22, 02:16:05,VALID,998.441,VALID,0,VALID,65.9657,VALID,0,VALID,27.018,VALID,159,VALID,3.12031,
2011-06-22, 02:17:05,VALID,998.43,VALID,0,VALID,65.7597,VALID,0,VALID,27.0375,VALID,161,VALID,2.86836,
2011-06-22, 02:18:05,VALID,998.456,VALID,0,VALID,65.9047,VALID,0,VALID,27.0571,VALID,172,VALID,2.75156,
2011-06-22, 02:19:05,VALID,998.481,VALID,0,VALID,65.6605,VALID,0,VALID,27.0961,VALID,159,VALID,3.07891,
2011-06-22, 02:20:05,VALID,998.537,VALID,0,VALID,66.0344,VALID,0,VALID,27.0745,VALID,139,VALID,2.24844,
2011-06-22, 02:21:05,VALID,998.553,VALID,0,VALID,67.1178,VALID,0,VALID,27.018,VALID,128,VALID,1.90234,
2011-06-22, 02:22:05,VALID,998.556,VALID,0,VALID,67.1407,VALID,0,VALID,26.8618,VALID,156,VALID,2.16953,
2011-06-22, 02:23:05,VALID,998.616,VALID,0,VALID,68.3309,VALID,0,VALID,26.7816,VALID,119,VALID,1.15039,
2011-06-22, 02:24:05,VALID,998.624,VALID,0,VALID,69.5592,VALID,0,VALID,26.6469,VALID,117,VALID,1.86289,
2011-06-22, 02:25:05,VALID,998.64,VALID,0,VALID,70.8105,VALID,0,VALID,26.3911,VALID,120,VALID,2.46836,
2011-06-22, 02:26:05,VALID,998.623,VALID,0,VALID,71.9015,VALID,0,VALID,26.1958,VALID,122,VALID,2.27266,
2011-06-22, 02:27:05,VALID,998.65,VALID,0,VALID,72.6416,VALID,0,VALID,26.1002,VALID,136,VALID,2.02852,
2011-06-22, 02:28:05,VALID,998.681,VALID,0,VALID,73.4961,VALID,0.112286,VALID,26.0026,VALID,134,VALID,2.00039,
2011-06-22, 02:29:05,VALID,998.664,VALID,0,VALID,73.8547,VALID,0,VALID,25.9049,VALID,133,VALID,2.90625,
2011-06-22, 02:30:05,VALID,998.663,VALID,0,VALID,74.6558,VALID,0,VALID,25.8464,VALID,124,VALID,1.26563,
2011-06-22, 02:31:05,VALID,998.67,VALID,0,VALID,74.8313,VALID,0,VALID,25.7487,VALID,132,VALID,2.00391,
2011-06-22, 02:32:05,VALID,998.697,VALID,0,VALID,75.6553,VALID,0,VALID,25.6707,VALID,153,VALID,1.18398,
2011-06-22, 02:33:05,VALID,998.704,VALID,0,VALID,75.6172,VALID,0,VALID,25.5926,VALID,129,VALID,1.41641,
2011-06-22, 02:34:05,VALID,998.665,VALID,0,VALID,75.8003,VALID,0,VALID,25.5535,VALID,131,VALID,1.10078,
2011-06-22, 02:35:05,VALID,998.665,VALID,0,VALID,75.6706,VALID,0,VALID,25.534,VALID,135,VALID,1.71445,
2011-06-22, 02:36:05,VALID,998.659,VALID,0,VALID,75.93,VALID,0,VALID,25.534,VALID,133,VALID,1.45781,
2011-06-22, 02:37:05,VALID,998.655,VALID,0,VALID,76.2199,VALID,0,VALID,25.4949,VALID,132,VALID,1.36367,
2011-06-22, 02:38:05,VALID,998.622,VALID,0,VALID,76.3878,VALID,0,VALID,25.4345,VALID,128,VALID,1.37773,
2011-06-22, 02:39:05,VALID,998.601,VALID,0,VALID,76.2352,VALID,0,VALID,25.4169,VALID,116,VALID,1.5207,
2011-06-22, 02:40:05,VALID,998.604,VALID,0,VALID,76.2199,VALID,0,VALID,25.3973,VALID,120,VALID,1.32773,
2011-06-22, 02:41:05,VALID,998.608,VALID,0,VALID,76.0826,VALID,0,VALID,25.3973,VALID,120,VALID,1.58516,
2011-06-22, 02:42:05,VALID,998.597,VALID,0,VALID,75.991,VALID,0,VALID,25.4364,VALID,114,VALID,1.86367,
2011-06-22, 02:43:05,VALID,998.59,VALID,0,VALID,76.754,VALID,0,VALID,25.3973,VALID,110,VALID,1.52852,
2011-06-22, 02:44:05,VALID,998.604,VALID,0,VALID,77.1583,VALID,0,VALID,25.3369,VALID,122,VALID,1.77656,
2011-06-22, 02:45:05,VALID,998.606,VALID,0,VALID,77.3262,VALID,0,VALID,25.2997,VALID,130,VALID,1.60938,
2011-06-22, 02:46:05,VALID,998.618,VALID,0,VALID,77.6772,VALID,0,VALID,25.2607,VALID,127,VALID,1.13789,
2011-06-22, 02:47:05,VALID,998.601,VALID,0,VALID,77.8526,VALID,0,VALID,25.2197,VALID,120,VALID,1.2793,
2011-06-22, 02:48:05,VALID,998.614,VALID,0,VALID,78.1807,VALID,0,VALID,25.1612,VALID,123,VALID,1.07461,
2011-06-22, 02:49:05,VALID,998.617,VALID,0,VALID,78.3333,VALID,0,VALID,25.1631,VALID,136,VALID,1.05234,
2011-06-22, 02:50:05,VALID,998.572,VALID,0,VALID,78.196,VALID,0,VALID,25.1026,VALID,137,VALID,0.825391,
2011-06-22, 02:51:05,VALID,998.605,VALID,0,VALID,78.0663,VALID,0,VALID,25.1241,VALID,136,VALID,0.852734,
2011-06-22, 02:52:05,VALID,998.615,VALID,0,VALID,77.8908,VALID,0,VALID,25.1241,VALID,136,VALID,1.12969,
2011-06-22, 02:53:04,VALID,998.636,VALID,0,VALID,77.9061,VALID,0.112286,VALID,25.1417,VALID,140,VALID,1.34375,
2011-06-22, 02:54:04,VALID,998.616,VALID,0,VALID,77.9442,VALID,0,VALID,25.1631,VALID,129,VALID,0.934766,
2011-06-22, 02:55:04,VALID,998.612,VALID,0,VALID,78.0892,VALID,0,VALID,25.1826,VALID,128,VALID,1.21875,
2011-06-22, 02:56:04,VALID,998.613,VALID,0,VALID,78.1807,VALID,0,VALID,25.1417,VALID,132,VALID,0.919922,
2011-06-22, 02:57:04,VALID,998.61,VALID,0,VALID,77.9366,VALID,0,VALID,25.1631,VALID,137,VALID,0.999609,
2011-06-22, 02:58:04,VALID,998.594,VALID,0,VALID,77.9289,VALID,0.112286,VALID,25.1826,VALID,133,VALID,0.701953,
2011-06-22, 02:59:04,VALID,998.561,VALID,0,VALID,77.9747,VALID,0,VALID,25.1826,VALID,133,VALID,0.528906,
2011-06-22, 03:00:04,VALID,998.548,VALID,0,VALID,77.2575,VALID,0,VALID,25.1826,VALID,135,VALID,0.529688,
2011-06-22, 03:01:04,VALID,998.579,VALID,0,VALID,77.2652,VALID,0,VALID,25.2021,VALID,132,VALID,0.666016,
2011-06-22, 03:02:04,VALID,998.578,VALID,0,VALID,77.021,VALID,0.112286,VALID,25.2217,VALID,125,VALID,1.67969,
2011-06-22, 03:03:04,VALID,998.591,VALID,0,VALID,77.1202,VALID,0,VALID,25.2412,VALID,127,VALID,1.56484,
2011-06-22, 03:04:04,VALID,998.618,VALID,0,VALID,77.4406,VALID,0,VALID,25.2412,VALID,119,VALID,1.29258,
2011-06-22, 03:05:04,VALID,998.587,VALID,0,VALID,77.5398,VALID,0,VALID,25.2412,VALID,127,VALID,1.23867,
2011-06-22, 03:06:04,VALID,998.596,VALID,0,VALID,77.8298,VALID,0,VALID,25.2217,VALID,131,VALID,0.921484,
2011-06-22, 03:07:04,VALID,998.577,VALID,0,VALID,77.8832,VALID,0,VALID,25.1826,VALID,130,VALID,1.11719,
2011-06-22, 03:08:04,VALID,998.567,VALID,0,VALID,78.318,VALID,0,VALID,25.1826,VALID,116,VALID,1.29609,
2011-06-22, 03:09:04,VALID,998.579,VALID,0,VALID,78.4859,VALID,0.112286,VALID,25.1612,VALID,121,VALID,1.54258,
2011-06-22, 03:10:04,VALID,998.549,VALID,0,VALID,78.7453,VALID,0,VALID,25.1417,VALID,124,VALID,1.19531,
2011-06-22, 03:11:04,VALID,998.526,VALID,0,VALID,78.9132,VALID,0,VALID,25.1436,VALID,125,VALID,0.534375,
2011-06-22, 03:12:04,VALID,998.506,VALID,0,VALID,79.1726,VALID,0.112286,VALID,25.1045,VALID,126,VALID,0.225781,
2011-06-22, 03:13:04,VALID,998.529,VALID,0,VALID,79.4396,VALID,0,VALID,25.0655,VALID,126,VALID,0.216016,
2011-06-22, 03:14:04,VALID,998.531,VALID,0,VALID,79.7219,VALID,0.112286,VALID,25.005,VALID,126,VALID,0.4125,
2011-06-22, 03:15:04,VALID,998.527,VALID,0,VALID,80.0195,VALID,0.112286,VALID,24.9679,VALID,133,VALID,0.556641,
2011-06-22, 03:16:04,VALID,998.504,VALID,0,VALID,80.3094,VALID,0,VALID,24.9093,VALID,131,VALID,0.575781,
2011-06-22, 03:17:04,VALID,998.495,VALID,0,VALID,80.6832,VALID,0,VALID,24.8898,VALID,124,VALID,0.661719,
2011-06-22, 03:18:04,VALID,998.517,VALID,0,VALID,80.996,VALID,0,VALID,24.8508,VALID,113,VALID,0.844141,
2011-06-22, 03:19:04,VALID,998.479,VALID,0,VALID,81.08,VALID,0,VALID,24.8332,VALID,113,VALID,0.605469,
2011-06-22, 03:20:04,VALID,998.513,VALID,0,VALID,81.1792,VALID,0,VALID,24.8136,VALID,115,VALID,0.881641,
2011-06-22, 03:21:04,VALID,998.488,VALID,0,VALID,81.2097,VALID,0,VALID,24.7941,VALID,127,VALID,0.960547,
2011-06-22, 03:22:04,VALID,998.499,VALID,0,VALID,81.1334,VALID,0,VALID,24.8136,VALID,127,VALID,0.991406,
2011-06-22, 03:23:04,VALID,998.48,VALID,0,VALID,81.1944,VALID,0,VALID,24.8136,VALID,127,VALID,0.738672,
2011-06-22, 03:24:04,VALID,998.464,VALID,0,VALID,81.1715,VALID,0,VALID,24.8313,VALID,115,VALID,0.766797,
2011-06-22, 03:25:04,VALID,998.479,VALID,0,VALID,80.9655,VALID,0,VALID,24.8332,VALID,126,VALID,0.941406,
2011-06-22, 03:26:04,VALID,998.49,VALID,0,VALID,80.7977,VALID,0,VALID,24.8722,VALID,134,VALID,0.592578,
2011-06-22, 03:27:04,VALID,998.443,VALID,0,VALID,80.7138,VALID,0,VALID,24.8703,VALID,126,VALID,0.703125,
2011-06-22, 03:28:04,VALID,998.474,VALID,0,VALID,80.5764,VALID,0,VALID,24.9112,VALID,143,VALID,0.963281,
2011-06-22, 03:29:04,VALID,998.491,VALID,0,VALID,80.6069,VALID,0,VALID,24.9484,VALID,137,VALID,0.746094,
2011-06-22, 03:30:04,VALID,998.463,VALID,0,VALID,80.8816,VALID,0,VALID,24.9289,VALID,137,VALID,0.433594,
2011-06-22, 03:31:04,VALID,998.45,VALID,0,VALID,81.2326,VALID,0,VALID,24.9308,VALID,80,VALID,0.5125,
2011-06-22, 03:32:04,VALID,998.484,VALID,0,VALID,81.8963,VALID,0,VALID,24.8527,VALID,80,VALID,0.398438,
2011-06-22, 03:33:04,VALID,998.447,VALID,0,VALID,82.8043,VALID,0,VALID,24.7532,VALID,80,VALID,0.296875,
2011-06-22, 03:34:04,VALID,998.417,VALID,0,VALID,83.3612,VALID,0,VALID,24.6946,VALID,80,VALID,0.0773437,
2011-06-22, 03:35:04,VALID,998.411,VALID,0,VALID,83.7351,VALID,0,VALID,24.638,VALID,80,VALID,0.366406,
2011-06-22, 03:36:04,VALID,998.39,VALID,0,VALID,83.9716,VALID,0,VALID,24.5971,VALID,80,VALID,0.558984,
2011-06-22, 03:37:04,VALID,998.344,VALID,0,VALID,84.1242,VALID,0,VALID,24.5775,VALID,80,VALID,0.199219,
2011-06-22, 03:38:04,VALID,998.348,VALID,0,VALID,84.231,VALID,0,VALID,24.5599,VALID,80,VALID,0.0960938,
2011-06-22, 03:39:04,VALID,998.315,VALID,0,VALID,84.2844,VALID,0,VALID,24.5404,VALID,80,VALID,0.452734,
2011-06-22, 03:40:04,VALID,998.312,VALID,0,VALID,84.3836,VALID,0,VALID,24.519,VALID,102,VALID,0.705859,
2011-06-22, 03:41:04,VALID,998.287,VALID,0,VALID,84.2005,VALID,0,VALID,24.5404,VALID,106,VALID,0.762891,
2011-06-22, 03:42:04,VALID,998.265,VALID,0,VALID,84.1166,VALID,0,VALID,24.558,VALID,117,VALID,0.919141,
2011-06-22, 03:43:04,VALID,998.26,VALID,0,VALID,83.964,VALID,0,VALID,24.6184,VALID,121,VALID,0.608203,
2011-06-22, 03:44:04,VALID,998.262,VALID,0,VALID,83.6664,VALID,0,VALID,24.6361,VALID,121,VALID,0.349609,
2011-06-22, 03:45:04,VALID,998.241,VALID,0,VALID,83.6512,VALID,0,VALID,24.677,VALID,121,VALID,0.395703,